GW4399 Weather Reports


Display with metric or nautical units.
time (UTC)temp
F
wind
direction
speed
MPH
gust
MPH
rain 1hr
in
rain 24hr
in
rain mn
in
humidity
%
barometer
mb
20260506091409 65 204 2.0 2.0 0.00 0.00 0.00 67 1023.0
20260506090906 65 197 1.0 3.0 0.00 0.00 0.00 66 1023.1
20260506090404 65 181 1.0 3.0 0.00 0.00 0.00 66 1022.9
20260506085900 65 202 2.0 4.0 0.00 0.00 0.00 65 1022.9
20260506085357 65 196 2.0 2.0 0.00 0.00 0.00 65 1023.1
20260506084853 65 203 3.0 7.0 0.00 0.00 0.00 64 1023.1
20260506084350 65 197 2.0 3.0 0.00 0.00 0.00 64 1023.1
20260506083846 65 188 2.0 2.0 0.00 0.00 0.00 63 1023.0
20260506083344 66 172 1.0 3.0 0.00 0.00 0.00 63 1023.2
20260506082841 66 186 1.0 6.0 0.00 0.00 0.00 62 1023.2
20260506082337 66 179 1.0 3.0 0.00 0.00 0.00 62 1023.3
20260506081833 66 155 2.0 3.0 0.00 0.00 0.00 62 1023.1
20260506081331 66 188 2.0 3.0 0.00 0.00 0.00 62 1023.1
20260506080829 66 186 1.0 1.0 0.00 0.00 0.00 61 1023.2
20260506080326 66 178 2.0 2.0 0.00 0.00 0.00 61 1023.3
20260506073309 66 191 1.0 3.0 0.00 0.00 0.00 60 1023.1
20260506072806 67 181 1.0 3.0 0.00 0.00 0.00 60 1023.2
20260506072305 68 183 1.0 2.0 0.00 0.00 0.00 59 1023.1
20260506071801 68 195 1.0 2.0 0.00 0.00 0.00 58 1023.2
20260506071259 68 198 3.0 3.0 0.00 0.00 0.00 57 1023.1
20260506070755 68 203 1.0 3.0 0.00 0.00 0.00 57 1023.3
20260506070253 68 194 0.0 4.0 0.00 0.00 0.00 57 1023.4
20260506062224 69 195 2.0 3.0 0.00 0.00 0.00 55 1023.6
20260506061720 69 201 3.0 3.0 0.00 0.00 0.00 55 1023.4
20260506061218 69 260 2.0 2.0 0.00 0.00 0.00 55 1023.4
20260506060716 69 195 2.0 4.0 0.00 0.00 0.00 55 1023.4
20260506060213 69 192 2.0 6.0 0.00 0.00 0.00 54 1023.6
20260506051144 70 205 4.0 4.0 0.00 0.00 0.00 52 1023.9
20260506050643 70 201 2.0 6.0 0.00 0.00 0.00 52 1023.9
20260506050139 70 188 2.0 2.0 0.00 0.00 0.00 53 1023.9
20260506045132 70 201 4.0 4.0 0.00 0.00 0.00 53 1023.9
20260506044630 70 203 3.0 4.0 0.00 0.00 0.00 53 1024.0
20260506044127 70 233 2.0 3.0 0.00 0.00 0.00 53 1024.0
20260506043624 70 224 3.0 3.0 0.00 0.00 0.00 52 1024.1
20260506043123 71 180 2.0 4.0 0.00 0.00 0.00 52 1024.1
20260506042621 71 201 2.0 6.0 0.00 0.00 0.00 52 1024.1
20260506042119 70 223 1.0 3.0 0.00 0.00 0.00 52 1023.9
20260506041617 71 231 2.0 3.0 0.00 0.00 0.00 52 1023.9
20260506041113 71 193 3.0 4.0 0.00 0.00 0.00 52 1023.9
20260506040612 71 199 3.0 6.0 0.00 0.00 0.00 51 1023.7
20260506040108 71 200 3.0 4.0 0.00 0.00 0.00 50 1023.7
20260506035605 71 190 2.0 4.0 0.00 0.01 0.01 50 1023.9
20260506035101 71 197 2.0 3.0 0.00 0.01 0.01 49 1023.9
20260506034559 72 259 5.0 6.0 0.00 0.01 0.01 48 1024.0
20260506034055 72 181 1.0 2.0 0.00 0.01 0.01 48 1023.7
20260506033553 72 223 3.0 6.0 0.00 0.01 0.01 47 1023.8
20260506033049 72 183 1.0 6.0 0.00 0.01 0.01 47 1023.7
20260506032547 72 202 3.0 6.0 0.00 0.01 0.01 46 1023.8
20260506032044 72 186 2.0 4.0 0.00 0.01 0.01 46 1023.7
20260506031541 72 220 1.0 2.0 0.00 0.01 0.01 46 1023.5
20260506031038 73 194 3.0 4.0 0.00 0.01 0.01 45 1023.5
20260506030537 73 196 1.0 3.0 0.00 0.01 0.01 45 1023.7
20260506030034 73 205 1.0 4.0 0.00 0.01 0.01 45 1023.5
20260506025531 73 189 1.0 8.0 0.00 0.01 0.01 45 1023.6
20260506025026 73 187 1.0 4.0 0.00 0.01 0.01 45 1023.7
20260506024523 74 179 1.0 2.0 0.00 0.01 0.01 44 1023.4
20260506024019 73 198 4.0 6.0 0.00 0.01 0.01 44 1023.6
20260506023516 74 184 2.0 3.0 0.00 0.01 0.01 44 1023.5
20260506023014 74 204 4.0 6.0 0.00 0.01 0.01 44 1023.5
20260506022511 74 187 3.0 4.0 0.00 0.01 0.01 43 1023.4
20260506022008 74 201 2.0 4.0 0.00 0.01 0.01 43 1023.6
20260506021505 74 186 3.0 7.0 0.00 0.01 0.01 43 1023.4
20260506021003 74 182 1.0 6.0 0.00 0.01 0.01 43 1023.1
20260506020500 75 271 2.0 6.0 0.00 0.01 0.01 42 1023.3
20260506015957 75 200 4.0 6.0 0.00 0.01 0.01 42 1023.3
20260506015455 75 204 2.0 4.0 0.00 0.01 0.01 42 1023.3
20260506014951 74 172 2.0 6.0 0.00 0.01 0.01 41 1023.4
20260506014448 75 202 1.0 3.0 0.00 0.01 0.01 41 1023.4
20260506013944 75 156 2.0 3.0 0.00 0.01 0.01 40 1023.3
20260506013443 75 218 2.0 6.0 0.00 0.01 0.01 40 1023.3
20260506012938 75 195 2.0 3.0 0.00 0.01 0.01 39 1023.2
20260506012435 75 174 1.0 3.0 0.00 0.01 0.01 39 1023.1
20260506011932 76 186 2.0 3.0 0.00 0.01 0.01 38 1023.2
20260506011430 76 203 3.0 3.0 0.00 0.01 0.01 38 1023.1
20260506010926 76 218 2.0 6.0 0.00 0.01 0.01 37 1022.9
20260506010425 76 178 1.0 7.0 0.00 0.01 0.01 38 1022.6
20260506005921 76 198 1.0 3.0 0.00 0.01 0.01 38 1022.8
20260506005419 75 213 3.0 6.0 0.00 0.01 0.01 37 1022.7
20260506004914 76 216 2.0 2.0 0.00 0.01 0.01 38 1022.7
20260506004412 76 195 4.0 7.0 0.00 0.01 0.01 37 1022.7
20260506003908 76 183 2.0 3.0 0.00 0.01 0.01 38 1022.8
20260506003404 76 196 3.0 7.0 0.00 0.01 0.01 37 1022.8
20260506002901 76 178 2.0 4.0 0.00 0.01 0.01 37 1022.7
20260506002357 76 210 2.0 3.0 0.00 0.01 0.01 37 1022.5
20260506001853 76 172 2.0 3.0 0.00 0.01 0.01 37 1022.5
20260506001350 75 207 2.0 3.0 0.00 0.01 0.01 37 1022.6
20260506000847 76 200 2.0 2.0 0.00 0.01 0.01 37 1022.6
20260506000346 76 175 2.0 3.0 0.00 0.01 0.01 37 1022.5
20260505235841 76 207 2.0 6.0 0.00 0.01 0.01 36 1022.4
20260505235339 76 203 2.0 3.0 0.00 0.01 0.01 36 1022.6
20260505234835 77 195 4.0 4.0 0.00 0.01 0.01 36 1022.4
20260505234334 76 193 2.0 4.0 0.00 0.01 0.01 36 1022.4
20260505233830 77 192 1.0 3.0 0.00 0.01 0.01 36 1022.2
20260505233328 77 163 1.0 3.0 0.00 0.01 0.01 36 1022.2
20260505232825 77 167 4.0 6.0 0.00 0.01 0.01 35 1022.2
20260505232323 77 198 3.0 4.0 0.00 0.01 0.01 35 1022.0
20260505231819 77 187 1.0 2.0 0.00 0.01 0.01 35 1022.0
20260505231317 78 197 2.0 3.0 0.00 0.01 0.01 36 1021.9
20260505230816 78 198 2.0 3.0 0.00 0.01 0.01 35 1022.0
20260505230312 78 202 2.0 4.0 0.00 0.01 0.01 35 1022.0
20260505225808 78 210 1.0 2.0 0.00 0.01 0.01 35 1021.9
20260505225306 78 181 4.0 6.0 0.00 0.01 0.01 34 1021.8
20260505224800 79 202 2.0 3.0 0.00 0.01 0.01 35 1021.5
20260505224259 79 169 3.0 6.0 0.00 0.01 0.01 34 1021.5
20260505223756 79 202 3.0 6.0 0.00 0.01 0.01 34 1021.6
20260505223252 79 197 1.0 2.0 0.00 0.01 0.01 34 1021.5
20260505222749 79 200 3.0 6.0 0.00 0.01 0.01 34 1021.6
20260505222246 79 214 1.0 8.0 0.00 0.01 0.01 33 1021.6
20260505221742 80 315 4.0 6.0 0.00 0.01 0.01 33 1021.5
20260505221238 80 207 3.0 10.0 0.00 0.01 0.01 32 1021.3
20260505220735 80 220 5.0 8.0 0.00 0.01 0.01 32 1021.1
20260505220233 80 193 3.0 6.0 0.00 0.01 0.01 32 1021.1
20260505215731 80 202 3.0 7.0 0.00 0.01 0.01 32 1021.1
20260505215229 80 198 6.0 7.0 0.00 0.01 0.01 32 1021.0
20260505214726 80 203 2.0 6.0 0.00 0.01 0.01 34 1020.9
20260505214224 80 212 2.0 10.0 0.00 0.01 0.01 33 1021.2
20260505213721 79 219 4.0 6.0 0.00 0.01 0.01 33 1021.2
20260505213218 80 214 1.0 3.0 0.00 0.01 0.01 34 1021.0
20260505212714 80 212 3.0 6.0 0.00 0.01 0.01 33 1021.2
20260505212212 80 218 4.0 6.0 0.00 0.01 0.01 33 1021.3
20260505211708 80 199 2.0 7.0 0.00 0.01 0.01 33 1021.2
20260505211205 80 214 1.0 3.0 0.00 0.01 0.01 35 1021.0
20260505210701 80 206 6.0 8.0 0.00 0.01 0.01 33 1020.9
20260505210159 80 207 3.0 7.0 0.00 0.01 0.01 33 1020.9
20260505205656 81 207 2.0 4.0 0.00 0.01 0.01 33 1021.1
20260505205154 82 183 3.0 4.0 0.00 0.01 0.01 32 1020.9
20260505204650 82 264 3.0 7.0 0.00 0.01 0.01 33 1020.7
20260505204148 81 207 4.0 4.0 0.00 0.01 0.01 32 1020.8
20260505203645 82 237 4.0 6.0 0.00 0.01 0.01 33 1020.8
20260505203142 83 223 4.0 9.0 0.00 0.01 0.01 32 1020.9
20260505202637 82 212 3.0 8.0 0.00 0.01 0.01 33 1020.8
20260505202133 81 207 2.0 6.0 0.00 0.01 0.01 33 1021.0
20260505201625 81 210 1.0 6.0 0.00 0.01 0.01 34 1021.1
20260505201123 82 287 5.0 8.0 0.00 0.01 0.01 32 1021.2
20260505200620 82 181 3.0 7.0 0.00 0.01 0.01 33 1021.5
20260505200117 83 267 3.0 9.0 0.00 0.01 0.01 32 1021.1
20260505195613 82 198 3.0 8.0 0.00 0.01 0.01 32 1021.2
20260505195111 83 172 2.0 4.0 0.00 0.01 0.01 34 1021.3
20260505194608 82 204 2.0 3.0 0.00 0.01 0.01 34 1021.3
20260505194103 83 191 2.0 4.0 0.00 0.01 0.01 33 1021.1
20260505193555 83 233 6.0 9.0 0.00 0.01 0.01 33 1021.3
20260505193052 83 206 4.0 4.0 0.00 0.01 0.01 32 1021.5
20260505192551 83 215 4.0 6.0 0.00 0.01 0.01 32 1021.8
20260505192048 82 277 4.0 6.0 0.00 0.01 0.01 35 1021.7
20260505191546 80 197 4.0 7.0 0.00 0.01 0.01 35 1021.7
20260505191044 81 203 3.0 7.0 0.00 0.01 0.01 35 1021.6
20260505190543 82 190 4.0 8.0 0.00 0.01 0.01 34 1021.9
20260505190040 81 218 5.0 8.0 0.00 0.01 0.01 34 1021.9
20260505185537 81 198 3.0 8.0 0.00 0.01 0.01 35 1022.0
20260505185033 83 279 4.0 8.0 0.00 0.01 0.01 34 1022.0
20260505184530 83 215 6.0 9.0 0.00 0.01 0.01 33 1021.9
20260505184027 83 123 3.0 4.0 0.00 0.01 0.01 35 1022.0
20260505183524 83 196 4.0 7.0 0.00 0.01 0.01 35 1022.2
20260505183022 82 310 4.0 6.0 0.00 0.01 0.01 36 1022.4
20260505182518 82 213 2.0 6.0 0.00 0.01 0.01 38 1022.4
20260505182015 82 34 4.0 4.0 0.00 0.01 0.01 36 1022.3
20260505181511 82 182 1.0 4.0 0.00 0.01 0.01 40 1022.6
20260505181008 82 252 3.0 7.0 0.00 0.01 0.01 37 1022.5
20260505180503 81 274 3.0 7.0 0.00 0.01 0.01 38 1022.5
20260505180001 81 285 2.0 9.0 0.00 0.01 0.01 39 1022.6
20260505175457 80 284 3.0 7.0 0.00 0.01 0.01 39 1022.6
20260505174954 81 264 4.0 13.0 0.00 0.01 0.01 38 1022.6
20260505174451 82 294 6.0 9.0 0.00 0.01 0.01 37 1022.6
20260505173947 82 271 2.0 4.0 0.00 0.01 0.01 37 1022.5
20260505173443 81 207 6.0 9.0 0.00 0.01 0.01 38 1022.5
20260505172940 81 226 3.0 10.0 0.00 0.01 0.01 38 1022.7
20260505172439 81 209 3.0 9.0 0.00 0.01 0.01 38 1022.7
20260505171937 81 189 2.0 4.0 0.00 0.01 0.01 39 1022.6
20260505171435 80 273 3.0 8.0 0.00 0.01 0.01 39 1022.9
20260505170931 80 222 4.0 7.0 0.00 0.01 0.01 39 1022.7
20260505170428 80 118 1.0 7.0 0.00 0.01 0.01 40 1022.9
20260505165924 80 215 3.0 7.0 0.00 0.01 0.01 39 1022.9
20260505165420 80 240 2.0 3.0 0.00 0.01 0.01 40 1023.0
20260505164915 80 262 4.0 9.0 0.00 0.01 0.01 41 1023.0
20260505164412 80 227 1.0 2.0 0.00 0.01 0.01 41 1022.9
20260505163910 80 221 4.0 6.0 0.00 0.01 0.01 40 1023.3
20260505163409 80 298 4.0 7.0 0.00 0.01 0.01 39 1023.5
20260505162908 80 275 1.0 3.0 0.00 0.01 0.01 44 1023.6
20260505162403 79 204 2.0 4.0 0.00 0.01 0.01 41 1023.6
20260505161900 78 115 0.0 4.0 0.00 0.01 0.01 44 1023.8
20260505161357 78 243 1.0 4.0 0.00 0.01 0.01 41 1023.8
20260505160854 77 257 2.0 6.0 0.00 0.01 0.01 42 1024.1
20260505160352 77 289 2.0 9.0 0.00 0.01 0.01 42 1024.1
20260505153332 77 269 4.0 8.0 0.00 0.01 0.01 42 1024.3
20260505152829 77 239 3.0 4.0 0.00 0.01 0.01 43 1024.3
20260505152326 77 277 4.0 6.0 0.00 0.01 0.01 43 1024.2
20260505151825 76 303 3.0 4.0 0.00 0.01 0.01 44 1024.4
20260505151322 77 285 3.0 8.0 0.00 0.01 0.01 43 1024.2
20260505150819 76 258 2.0 7.0 0.00 0.01 0.01 43 1024.1
20260505150316 77 257 3.0 9.0 0.00 0.01 0.01 43 1024.2
20260505140240 73 260 1.0 3.0 0.00 0.01 0.01 53 1024.4
20260505130204 67 273 2.0 3.0 0.00 0.01 0.01 60 1024.5
20260505124654 67 194 0.0 1.0 0.00 0.01 0.01 62 1024.3
20260505124151 66 194 0.0 1.0 0.00 0.01 0.01 61 1024.2
20260505123647 66 195 1.0 1.0 0.00 0.01 0.01 61 1024.3
20260505123144 65 343 0.0 0.0 0.00 0.01 0.01 63 1024.3
20260505122640 64 9 0.0 0.0 0.00 0.01 0.01 63 1024.5
20260505122138 62 270 0.0 1.0 0.00 0.01 0.01 64 1024.4
20260505121634 63 186 0.0 0.0 0.00 0.01 0.01 69 1024.5
20260505121131 62 186 0.0 1.0 0.00 0.01 0.01 69 1024.6
20260505120627 62 163 0.0 1.0 0.00 0.01 0.01 71 1024.6
20260505120123 61 165 0.0 1.0 0.00 0.01 0.01 72 1024.4
20260505115617 61 150 1.0 1.0 0.00 0.01 0.01 72 1024.4
20260505115115 61 241 0.0 1.0 0.00 0.01 0.01 73 1024.6
20260505114612 59 183 0.0 1.0 0.00 0.01 0.01 74 1024.5
20260505114108 58 183 1.0 1.0 0.00 0.01 0.01 76 1024.4
20260505113605 58 183 0.0 0.0 0.00 0.01 0.01 76 1024.7
20260505113101 58 181 0.0 2.0 0.00 0.01 0.01 76 1024.4
20260505112558 58 222 1.0 1.0 0.00 0.01 0.01 78 1024.8
20260505112056 59 196 2.0 2.0 0.00 0.01 0.01 75 1024.2
20260505111549 60 172 1.0 2.0 0.00 0.01 0.01 72 1024.2
20260505111046 61 194 2.0 3.0 0.00 0.01 0.01 70 1024.3
20260505110542 62 224 1.0 3.0 0.00 0.01 0.01 68 1024.2
20260505102009 52 195 0.0 0.0 0.00 0.00 0.00 76 1024.8
20260505101508 52 196 0.0 0.0 0.00 0.00 0.00 77 1024.5
20260505101004 52 196 0.0 0.0 0.00 0.00 0.00 76 1024.7
20260505100501 52 196 0.0 1.0 0.00 0.00 0.00 75 1024.7
20260505095957 52 196 0.0 1.0 0.00 0.00 0.00 76 1024.4
20260505095454 51 196 0.0 0.0 0.00 0.00 0.00 76 1024.5
20260505094950 51 196 0.0 0.0 0.00 0.00 0.00 76 1024.4
20260505094447 51 196 0.0 0.0 0.00 0.00 0.00 76 1024.1
20260505093943 51 195 0.0 0.0 0.00 0.00 0.00 75 1024.2
20260505093440 51 196 0.0 1.0 0.00 0.00 0.00 75 1024.2
20260505092937 51 196 0.0 0.0 0.00 0.00 0.00 75 1024.2
20260505092435 51 196 0.0 0.0 0.00 0.00 0.00 74 1024.0
20260505091932 52 196 0.0 0.0 0.00 0.00 0.00 73 1023.9
20260505091430 52 196 0.0 0.0 0.00 0.00 0.00 73 1023.7